Wind_Speed
22 21 20 18 17 15 14 14 13 12 11 11 11 12 13 12 12 11 10 8 7 7 7 7 6 4 2 3 3 3 4 5 5 6 6 6 6 6 6 5 5 5 5 5 6 4 3 3 3 4 7 11 15 16 17 18 19 20 22 22 21 18 16 13 8 13 22 23 23 26 27 26 26 25 25 27 26 25 24 25 27 27 26 26 26
23 22 21 20 19 17 16 16 15 14 13 13 14 14 14 14 14 13 11 9 9 9 9 8 7 4 3 3 2 3 3 4 4 4 5 5 5 5 5 4 4 4 3 4 5 4 3 4 3 4 8 12 14 15 16 17 18 22 24 23 22 19 15 14 12 12 18 25 26 27 27 26 25 25 25 26 27 26 26 28 29 28 28 27 27
25 23 23 22 20 19 19 18 17 17 16 15 15 15 16 16 15 13 12 11 11 10 10 9 7 5 4 3 3 3 3 4 3 3 4 3 3 3 3 3 4 3 2 3 4 3 3 4 4 5 9 11 12 13 14 16 18 22 25 24 21 20 17 15 14 13 15 22 26 27 28 27 26 26 26 26 26 27 28 29 30 29 29 28 27
27 25 25 23 21 21 21 20 19 19 19 17 15 16 17 17 16 14 13 12 12 11 10 9 8 6 5 5 4 4 5 5 4 4 4 3 3 3 3 3 3 2 2 3 3 2 3 4 5 7 9 9 10 11 13 16 19 22 25 24 21 20 18 16 15 15 16 21 25 26 27 27 27 27 27 25 26 28 29 29 29 30 30 28 28
29 27 26 24 22 22 22 22 21 21 21 18 16 17 18 18 17 15 14 13 13 12 11 10 8 8 7 7 6 6 7 6 5 5 4 4 4 4 3 3 2 2 2 2 2 2 3 4 6 7 7 7 9 11 13 17 19 22 25 24 21 18 16 15 17 18 18 20 24 26 26 25 26 27 27 26 27 28 29 29 29 29 29 29 28
31 29 27 25 24 23 23 23 23 24 24 21 18 18 19 19 18 16 14 14 14 13 12 10 10 10 9 8 8 7 8 7 7 6 5 5 5 4 4 3 2 1 1 1 0 1 3 4 5 6 5 7 9 11 14 16 18 21 23 22 20 17 15 16 18 19 19 20 22 24 26 25 25 27 28 28 28 27 27 28 29 29 28 28 28
32 30 29 27 26 25 24 22 23 25 26 24 21 20 20 20 18 16 15 15 15 14 13 12 12 11 10 10 9 8 8 8 9 8 8 7 6 6 5 4 3 2 1 0 0 2 4 4 3 3 5 8 10 12 14 15 18 21 21 20 18 16 15 17 19 19 19 19 20 22 24 26 25 26 29 31 29 28 26 26 28 31 31 28 28
32 31 30 29 28 27 25 23 23 26 27 25 22 22 22 21 18 17 16 16 16 15 15 14 14 13 12 10 9 8 8 8 9 9 9 9 8 8 7 6 5 3 2 1 2 3 6 5 3 3 6 9 11 12 13 14 18 20 19 18 17 15 15 18 19 19 18 18 19 22 24 25 25 26 30 30 27 26 27 25 25 30 33 32 29
33 32 32 31 30 28 27 25 25 27 26 24 23 23 23 21 19 18 17 17 17 16 16 16 15 14 13 11 10 9 8 8 7 7 8 8 9 9 9 7 6 5 3 2 4 5 6 6 4 3 5 8 11 12 13 15 18 18 18 17 14 13 15 17 18 19 18 18 19 22 22 23 26 26 27 28 26 27 30 27 25 28 31 33 31
33 34 33 33 31 29 29 28 27 27 26 25 25 24 23 22 21 19 18 18 18 17 17 17 16 15 13 12 10 9 8 8 7 7 7 7 7 9 10 9 8 6 4 3 5 6 6 8 8 6 7 9 12 13 15 18 18 17 17 16 13 12 14 16 18 19 19 18 20 22 20 20 25 27 26 29 30 30 30 28 26 28 27 26 28
34 35 35 34 31 30 30 29 28 28 27 26 26 26 25 23 22 20 19 19 19 18 18 18 17 15 13 11 9 9 8 8 7 7 7 7 7 8 10 10 9 8 6 5 6 7 7 8 9 9 10 12 13 14 17 20 18 16 16 16 14 13 14 15 17 19 19 19 21 23 20 21 26 29 28 30 31 30 30 29 27 27 23 18 19
35 36 36 34 32 31 31 30 29 29 28 28 27 27 25 24 23 22 21 21 20 20 20 19 18 16 14 12 10 9 9 9 8 8 7 7 6 7 9 10 10 9 8 7 8 9 9 10 9 10 11 12 13 16 19 20 17 15 15 16 15 14 15 16 18 19 20 20 22 24 24 23 26 29 30 31 30 30 30 29 27 26 23 19 17
36 36 36 34 33 32 30 30 30 30 30 29 29 28 26 25 24 24 23 22 21 21 21 20 18 17 15 13 11 10 10 9 8 7 7 6 6 7 8 9 9 9 8 8 9 10 11 11 10 10 11 12 13 16 19 19 16 15 16 17 16 16 17 18 19 20 20 21 22 25 27 27 27 29 32 32 31 30 28 29 30 27 25 23 24
36 35 35 34 34 32 31 31 32 32 31 31 30 29 28 26 26 25 23 23 22 22 22 20 19 18 16 14 13 11 10 10 9 8 7 7 6 7 8 8 8 8 8 9 10 10 11 12 12 11 11 10 12 16 18 16 15 16 18 18 19 19 19 19 21 21 22 23 24 26 27 27 27 30 32 32 31 31 29 30 31 30 28 27 28
35 35 34 34 34 33 32 32 33 33 32 31 31 30 29 27 27 26 25 24 23 23 23 21 20 19 17 16 14 12 11 10 9 8 8 7 7 7 9 9 8 7 8 9 9 9 9 10 11 12 10 9 12 15 15 14 15 17 19 20 21 20 20 20 22 22 23 25 25 26 26 26 27 29 29 29 30 30 30 30 30 30 30 29 29
34 34 33 33 34 34 33 33 33 33 33 32 31 31 30 29 28 27 26 25 24 23 23 22 21 20 19 17 15 13 12 11 9 9 9 8 7 8 9 10 9 7 7 7 8 7 7 8 10 10 8 8 12 13 12 13 15 17 19 20 21 21 21 21 22 22 23 24 25 25 25 24 25 26 26 26 27 28 29 29 30 30 28 25 23
34 34 34 35 35 35 35 34 34 33 33 33 33 32 31 30 29 28 27 26 25 25 24 22 22 21 20 19 17 15 13 12 10 10 9 9 8 8 9 11 10 9 8 7 8 8 7 7 8 8 7 8 11 10 10 12 14 17 20 22 22 21 21 22 23 22 23 24 26 25 23 23 24 24 25 26 26 27 27 27 27 27 23 17 15
34 34 35 36 36 36 36 35 35 35 35 35 34 33 32 31 30 28 28 27 26 25 24 23 22 21 21 20 18 16 14 13 12 11 10 9 9 9 10 11 12 11 10 8 8 8 7 7 7 7 8 9 9 9 9 12 15 17 20 22 23 22 22 23 24 24 24 26 27 26 23 24 25 26 26 26 26 27 26 26 27 26 20 15 15
36 36 36 37 37 37 37 36 36 36 36 36 35 34 32 31 29 28 27 27 26 25 24 23 23 22 21 20 19 17 16 14 13 12 11 10 10 10 11 13 13 12 11 9 8 8 8 8 8 8 9 9 9 8 10 13 15 18 20 21 22 21 21 22 23 24 25 27 29 27 25 26 27 27 27 27 26 26 26 27 28 27 23 19 19
37 38 38 37 37 37 37 38 38 38 37 36 35 33 31 29 28 28 27 26 25 24 23 23 23 23 22 21 20 19 18 16 15 14 12 12 11 11 12 13 13 11 10 10 9 9 9 9 9 9 10 10 10 9 11 14 16 18 19 19 19 19 20 21 21 22 24 26 28 28 26 27 28 29 28 28 27 26 26 26 26 27 25 22 22
34 35 36 35 36 37 38 38 38 38 37 35 34 32 31 29 28 28 27 26 24 23 23 23 23 23 22 22 21 21 20 19 17 16 14 13 12 12 13 13 12 11 10 10 11 12 12 11 10 10 10 11 11 10 11 14 16 16 16 15 14 16 18 19 20 21 22 25 27 27 27 27 28 29 29 29 28 27 26 25 24 25 24 23 23
31 32 33 35 36 37 38 38 37 36 35 34 33 32 30 28 28 27 27 26 24 24 24 24 24 23 23 23 23 22 21 20 19 18 16 15 14 14 14 13 12 12 12 11 11 13 14 14 13 12 12 12 12 11 12 14 15 14 13 12 12 14 16 17 19 20 22 24 26 27 27 27 28 29 29 28 28 27 26 26 25 24 22 22 23
29 29 31 34 35 36 36 36 36 35 34 33 31 30 28 28 27 27 26 26 25 25 25 24 24 24 24 25 25 24 23 22 21 20 19 17 16 15 14 13 13 12 12 12 11 11 13 14 14 13 13 12 12 12 13 14 13 11 10 11 12 14 15 16 18 19 21 24 25 26 27 27 27 28 29 28 27 27 26 26 26 25 23 24 24
25 27 29 31 33 33 33 33 33 32 31 30 29 28 28 28 27 27 26 26 26 26 26 25 25 26 26 27 26 26 25 24 24 22 20 19 17 16 15 14 14 13 13 12 11 11 11 12 12 12 12 12 11 12 13 13 12 9 9 11 13 13 14 16 16 18 20 23 24 26 26 26 26 26 27 27 26 27 27 26 27 26 25 25 24
23 26 28 29 30 30 30 30 30 30 30 29 29 29 28 28 27 27 27 27 27 27 27 27 27 28 28 29 29 28 27 27 26 24 21 19 18 17 16 15 14 14 14 12 11 11 12 11 11 12 12 12 12 12 13 11 9 8 9 11 12 12 13 14 15 17 19 21 22 24 25 25 25 25 24 24 25 27 28 28 28 28 27 27 26
23 25 26 27 28 28 28 28 29 29 29 29 29 29 28 28 29 29 28 28 28 28 28 28 28 28 29 30 31 30 29 29 28 26 23 21 20 19 18 17 15 15 15 14 13 13 13 12 12 13 14 13 13 13 12 10 8 8 9 11 11 10 11 13 14 15 18 19 21 23 24 24 24 23 22 23 25 27 28 29 29 29 29 28 27
21 24 25 26 27 28 28 29 29 29 28 28 28 28 28 28 29 29 30 30 30 30 29 28 29 29 30 31 32 31 30 30 30 28 26 25 24 22 21 20 18 17 17 17 16 14 13 13 14 15 15 14 14 13 12 10 8 8 9 11 10 9 10 11 12 14 16 18 19 21 23 23 24 23 23 24 26 27 28 27 27 28 29 27 25
21 24 26 27 28 29 29 29 29 29 29 29 29 29 29 30 30 31 32 32 33 32 32 32 32 32 33 33 31 29 30 32 32 31 30 28 26 25 25 24 23 22 21 19 17 15 16 17 17 16 15 14 14 12 10 10 9 8 9 11 10 9 10 11 12 14 16 17 18 20 23 24 23 23 23 25 26 27 27 27 26 26 27 25 23
22 24 26 27 28 29 29 29 29 29 29 30 30 30 30 31 32 33 33 33 33 33 33 34 34 34 34 33 31 30 32 33 32 31 29 28 26 26 26 25 24 23 22 19 18 18 19 20 19 17 15 14 14 12 10 10 10 9 10 11 10 9 10 11 12 14 15 16 17 19 21 22 22 22 23 25 26 26 26 26 25 25 25 24 22
23 24 26 27 27 28 28 28 28 29 29 30 30 30 30 30 32 33 33 33 33 33 34 34 33 31 32 33 32 32 33 32 30 27 27 27 27 27 26 25 24 22 21 20 20 21 22 22 21 18 16 15 14 13 11 11 11 11 11 11 10 9 10 10 11 13 14 14 16 17 19 20 21 20 22 24 25 26 26 25 23 23 24 23 20
23 24 25 26 27 28 28 28 29 29 29 30 30 30 30 30 32 33 33 33 33 34 35 35 34 33 33 33 32 32 33 32 30 29 28 26 26 26 26 26 25 24 22 22 23 24 24 23 21 19 17 16 15 14 12 12 13 12 11 11 9 9 9 10 11 12 13 14 15 16 17 18 19 19 21 23 25 25 26 25 23 22 23 22 20
23 25 26 27 28 28 28 28 29 29 28 28 29 29 29 29 30 33 35 35 35 35 35 36 36 36 36 36 34 34 33 31 30 31 30 28 27 27 26 26 26 25 24 24 25 26 25 23 23 21 19 17 17 15 14 13 14 13 12 11 10 9 9 10 11 11 12 14 14 14 15 16 16 17 19 21 23 25 25 25 23 21 22 22 21
24 25 27 27 27 28 28 28 28 29 29 29 29 30 30 29 30 32 33 35 36 37 37 38 38 38 38 37 37 36 34 32 30 30 30 30 29 27 26 27 28 28 28 27 28 28 27 26 25 23 21 19 18 17 16 15 15 15 13 12 10 9 9 9 10 10 11 13 13 13 14 14 14 15 18 20 22 23 24 23 22 21 21 21 22
24 25 26 27 28 29 29 29 30 31 31 31 30 31 32 33 32 31 29 29 32 35 38 39 39 39 38 38 37 36 35 34 32 31 31 30 29 27 27 28 28 29 29 29 30 30 29 28 27 25 23 21 19 18 18 16 16 16 14 12 11 10 9 9 10 10 11 11 12 12 13 12 12 14 17 19 20 21 22 21 20 20 20 20 20
25 26 26 27 28 29 30 32 32 32 32 32 32 33 34 34 33 31 29 28 29 31 35 37 37 37 38 38 37 37 36 35 34 33 31 29 28 26 26 28 28 29 29 31 32 32 32 31 30 28 25 22 20 19 18 18 17 17 16 14 12 10 9 9 10 10 11 11 11 11 11 10 9 11 15 17 18 20 21 20 18 17 18 19 19
23 25 26 27 29 30 31 32 33 33 34 35 35 35 34 33 32 32 31 30 29 30 33 34 32 30 32 34 35 36 35 33 32 31 29 28 28 27 28 29 30 31 33 34 35 35 34 33 32 30 27 24 21 20 19 19 18 18 17 15 13 11 10 9 10 10 10 10 10 11 10 8 7 10 13 15 16 17 17 17 16 15 17 18 19
17 19 20 22 25 27 29 31 33 34 34 34 33 32 32 31 31 31 30 30 31 31 31 31 28 26 27 30 30 31 32 31 29 27 25 25 27 28 30 31 32 33 35 36 36 36 36 35 34 32 30 27 24 21 20 20 19 19 19 17 14 12 11 10 10 10 10 10 10 10 9 7 6 8 11 13 14 15 15 15 15 14 15 18 19
10 13 14 17 21 24 27 29 29 28 29 30 30 30 29 29 29 28 28 28 28 28 28 29 28 27 29 31 29 28 29 30 28 26 25 26 28 31 32 33 34 35 36 36 35 35 36 36 35 33 32 30 26 24 22 21 21 21 21 19 16 13 12 11 11 11 11 10 10 9 8 6 4 6 9 11 12 13 13 13 14 14 15 17 19
3 4 7 10 14 18 23 26 26 26 28 31 31 30 30 30 29 28 28 29 29 30 32 32 31 32 34 35 32 29 28 29 31 31 31 32 34 34 34 35 36 36 36 35 35 35 36 36 36 35 33 31 28 26 24 22 22 22 22 21 17 15 13 13 12 12 11 11 10 9 7 5 3 3 7 9 10 11 11 11 12 13 14 16 17
9 8 6 6 7 8 10 14 18 21 25 28 28 28 29 31 31 30 29 30 31 34 34 33 34 36 37 36 35 33 31 33 35 35 35 35 35 35 36 37 38 39 40 40 38 36 36 36 36 35 35 33 30 28 26 23 22 21 22 22 20 17 15 14 14 13 12 12 11 9 7 5 3 1 4 6 8 9 8 9 10 11 12 14 16
12 11 9 7 6 6 6 7 9 12 16 19 23 25 28 31 32 31 30 30 33 35 35 33 35 37 37 36 36 36 36 37 37 35 34 35 36 38 40 41 41 42 42 41 39 36 36 36 36 36 35 35 33 30 27 25 22 22 23 24 22 18 17 16 15 14 13 12 11 9 7 5 3 1 2 4 6 7 6 6 8 10 11 12 15
14 13 11 10 8 8 9 10 10 10 11 13 15 18 23 27 30 31 31 31 33 33 32 32 34 36 36 36 35 35 36 37 36 34 34 35 36 39 42 43 43 42 41 40 38 37 35 34 34 35 36 36 35 33 30 28 25 24 25 25 23 21 18 17 16 15 14 13 12 10 8 6 5 3 0 2 4 5 5 4 6 8 10 11 14
16 14 12 11 11 11 11 12 12 12 13 14 14 14 16 19 22 26 28 30 30 31 31 32 34 35 34 32 30 30 33 35 35 35 35 36 37 39 42 44 44 43 41 39 39 37 34 31 31 34 35 36 36 35 33 31 29 26 26 27 25 23 21 19 18 17 15 14 13 11 9 8 6 5 2 0 2 4 4 3 4 7 8 10 12
18 16 15 14 14 14 14 15 15 15 15 16 16 16 16 16 17 19 21 24 26 28 29 31 32 32 30 27 24 25 29 33 34 35 36 36 38 39 41 43 44 43 41 40 39 36 33 30 29 31 32 34 36 36 34 32 30 29 29 28 27 25 23 21 19 18 16 15 14 12 11 9 8 6 4 2 2 3 3 2 3 5 7 8 10
20 19 19 19 18 17 16 16 16 16 16 17 18 19 19 18 18 17 18 19 22 24 26 27 29 30 28 25 23 24 28 30 32 34 34 36 37 39 40 42 42 41 40 40 39 36 33 29 28 28 29 32 35 36 35 32 31 30 30 30 29 27 25 22 20 18 16 14 14 13 12 11 9 8 6 4 2 2 2 1 2 4 5 7 8
21 21 22 22 20 17 16 16 15 15 17 18 20 21 21 21 21 21 19 19 18 19 21 23 25 27 27 25 24 24 26 27 29 31 33 34 36 37 38 39 39 39 39 39 38 36 33 29 27 27 28 30 33 34 34 32 30 30 30 30 29 28 25 22 19 17 16 15 13 13 12 12 11 10 8 5 4 3 2 1 0 2 4 4 6
21 21 22 22 20 16 15 15 16 16 17 18 19 20 21 21 22 23 23 23 22 22 21 21 21 22 23 23 23 23 24 25 27 29 31 32 34 35 36 36 36 37 37 37 37 36 34 31 27 24 24 27 31 33 32 31 30 30 30 30 29 27 25 21 19 19 18 15 13 13 13 12 12 12 10 7 5 4 3 3 2 1 2 2 4
22 22 22 22 20 16 14 15 16 17 17 18 18 19 20 21 22 23 23 24 25 24 24 24 24 23 21 20 19 19 20 22 25 27 28 29 30 32 33 34 35 34 34 34 34 35 34 32 28 24 22 23 28 30 30 29 29 29 30 29 29 27 25 22 21 20 19 17 14 12 12 12 13 13 12 9 7 6 5 5 3 1 1 1 3
22 22 22 22 20 16 13 14 16 16 16 17 18 19 20 21 22 22 23 24 25 24 24 24 25 25 25 23 22 20 19 18 20 22 24 26 27 28 30 31 32 32 32 32 33 33 34 33 31 27 24 23 25 27 27 26 26 28 29 30 29 27 25 23 22 21 20 18 15 13 12 13 14 14 13 11 9 7 7 6 4 2 2 2 2
21 22 22 23 21 16 13 13 15 14 14 16 17 18 18 19 20 21 22 23 24 23 23 23 24 25 25 25 25 25 23 22 21 21 22 24 25 27 28 29 30 30 31 31 32 33 33 33 33 31 28 25 26 27 26 25 24 25 27 29 29 28 26 24 23 21 20 19 16 14 13 14 14 15 15 13 10 9 9 8 5 4 4 3 2
19 22 23 24 23 18 15 15 15 13 13 14 16 16 17 17 18 18 19 21 22 22 22 22 23 23 23 23 24 24 24 24 24 24 23 23 24 25 26 27 28 29 30 31 31 32 32 33 32 32 30 27 27 27 26 25 24 25 26 28 30 30 28 25 24 22 20 19 17 16 14 14 14 16 17 15 12 10 10 9 7 5 5 5 4
Wind_Direction
211 213 216 219 222 225 225 221 222 227 229 232 234 231 227 222 215 208 202 199 202 197 186 180 177 172 155 123 103 113 143 142 127 112 101 92 83 79 80 74 67 66 55 39 35 35 24 14 9 3 3 3 3 3 7 10 8 5 3 358 356 0 354 338 311 298 312 324 328 329 334 335 331 331 331 330 332 332 328 328 329 328 327 328 328
214 216 218 219 223 228 228 226 228 232 232 234 237 234 226 218 212 209 204 202 203 199 190 186 188 188 176 154 118 111 139 146 142 138 123 108 101 95 86 77 74 61 53 48 38 33 16 4 356 357 4 4 0 1 4 6 4 0 359 357 353 354 353 336 317 303 310 322 328 329 332 332 327 327 330 328 328 327 324 324 326 325 323 323 323
216 219 219 220 222 226 229 229 230 232 232 235 240 234 221 213 209 206 202 198 199 199 197 194 193 193 182 168 151 129 135 137 125 132 136 124 112 113 106 95 84 63 61 56 34 22 18 8 357 358 2 0 357 1 4 2 0 358 356 356 353 350 351 343 328 315 309 317 326 328 329 330 326 326 328 327 326 325 322 323 325 324 322 320 319
219 220 220 220 222 226 230 231 232 233 233 235 237 228 216 208 205 203 200 197 198 199 201 201 199 196 186 178 176 164 164 167 154 140 139 132 120 118 121 111 89 74 69 54 34 22 25 21 13 3 356 354 356 1 3 359 356 354 353 353 353 349 349 350 343 331 317 315 322 326 326 327 326 327 328 326 327 326 324 325 324 323 322 320 317
219 220 221 221 223 227 231 233 233 232 231 230 228 219 211 206 203 203 202 199 198 199 200 202 201 198 194 192 193 189 188 194 194 180 167 159 149 133 129 126 110 104 77 43 44 55 39 23 14 6 351 348 355 357 357 355 351 350 350 350 352 350 351 355 352 342 328 316 318 324 328 327 326 329 332 329 326 327 328 327 325 322 321 320 318
219 219 220 221 223 227 232 235 233 229 227 226 223 215 209 205 203 203 205 203 199 200 202 202 201 200 199 200 203 205 206 211 215 209 200 190 179 169 158 145 139 137 91 28 54 43 17 3 3 2 349 347 352 351 351 350 346 346 348 350 351 351 353 356 352 344 334 323 319 323 327 329 326 329 335 334 327 326 326 325 325 324 321 319 319
218 218 219 220 223 227 230 232 229 225 224 223 220 214 207 205 205 205 206 204 200 200 201 202 203 204 205 205 210 220 226 229 230 226 220 216 204 194 182 164 155 161 175 277 250 341 344 351 10 3 344 346 349 348 347 346 344 345 348 352 352 352 354 355 351 345 337 329 326 325 326 327 327 329 335 336 332 328 327 324 323 324 324 321 318
216 216 218 220 223 226 228 228 224 222 221 220 216 211 206 204 205 204 205 205 203 202 203 203 202 203 207 212 217 231 240 238 235 232 230 229 220 208 197 183 172 168 180 246 275 308 326 343 24 9 343 341 343 346 345 344 345 347 352 355 355 354 356 353 349 345 338 330 329 328 326 327 330 331 334 335 331 328 328 325 318 319 322 321 318
214 213 216 220 222 224 225 224 222 219 217 215 212 208 205 203 203 203 204 205 204 203 206 208 205 204 209 217 227 240 242 234 231 232 232 231 223 215 209 199 189 184 189 244 278 298 322 338 351 347 330 327 332 340 343 345 349 353 358 2 1 1 360 354 348 344 338 333 331 330 328 327 330 332 331 330 326 323 325 325 319 318 320 319 318
212 211 214 219 221 221 222 222 219 216 214 213 209 206 204 202 202 203 203 204 205 204 206 209 210 212 217 223 233 239 234 228 229 233 232 231 227 220 216 210 202 197 202 242 273 288 316 335 340 332 314 315 326 338 343 347 353 358 4 11 14 10 3 354 348 344 338 333 330 329 327 325 327 328 325 325 325 324 325 324 320 320 321 318 317
211 211 214 218 218 220 222 221 218 215 213 210 207 204 203 201 202 203 202 202 204 205 206 210 213 218 224 229 234 234 229 226 227 229 228 228 231 225 217 214 211 209 212 232 262 280 299 321 332 327 316 317 327 336 342 349 356 0 8 18 24 19 8 356 349 347 340 331 328 327 324 320 324 327 324 324 325 324 324 324 321 319 319 317 315
212 213 214 216 217 220 222 220 216 213 210 208 206 203 202 201 201 202 201 201 204 207 210 214 216 219 224 227 229 231 230 226 224 227 228 226 232 232 222 218 219 222 223 232 250 266 283 302 315 314 310 314 324 334 343 350 357 5 11 19 25 23 16 5 356 350 342 332 327 325 324 320 321 326 326 325 324 324 325 325 323 319 315 314 307
212 213 214 215 217 220 221 217 213 211 209 207 204 201 200 201 202 204 204 203 206 209 212 216 218 220 224 226 229 232 231 227 225 228 228 229 234 233 226 221 221 224 226 235 250 260 271 284 291 294 299 308 321 335 344 349 358 10 15 16 19 21 18 11 5 358 350 340 328 324 327 325 321 325 331 330 326 325 326 325 323 320 314 311 306
211 213 214 215 218 219 218 214 211 209 207 204 201 199 200 202 204 205 205 204 205 209 213 216 219 223 226 227 230 236 234 227 228 231 229 232 235 228 218 212 212 222 235 249 259 264 269 273 275 280 289 302 322 337 344 350 0 9 10 10 11 14 14 8 4 2 359 351 337 329 333 333 327 330 336 336 331 327 325 323 321 319 314 313 313
212 214 214 215 217 217 215 212 209 206 203 201 199 199 200 202 204 205 205 205 208 211 215 218 221 224 227 228 231 236 234 228 229 232 233 234 234 228 219 212 217 237 253 258 260 263 268 267 266 271 280 303 328 340 345 351 360 2 1 1 2 6 10 5 359 359 360 356 347 338 339 341 338 337 339 338 334 331 329 325 324 324 323 323 324
213 214 214 214 215 215 213 209 206 203 200 198 198 199 201 203 204 204 205 207 209 213 217 220 223 224 225 229 234 235 232 230 231 233 235 236 237 237 226 221 230 246 250 251 258 266 273 272 266 264 276 310 334 344 347 351 355 351 348 351 354 357 3 2 358 359 360 357 352 346 344 347 347 345 343 341 337 336 335 332 333 335 331 326 325
214 214 214 214 214 214 212 208 204 200 198 197 198 200 202 204 205 205 205 205 208 213 217 220 224 226 228 232 235 235 233 234 235 236 238 236 238 241 230 223 233 242 244 253 266 272 278 276 265 261 280 319 336 344 346 345 345 342 339 342 345 348 356 359 356 358 1 357 353 351 351 353 353 351 349 347 345 344 340 333 335 337 331 325 323
216 215 215 215 214 213 212 208 204 200 198 198 200 201 203 205 207 208 208 208 210 214 217 220 224 229 233 236 237 237 238 238 237 238 240 238 239 241 233 228 235 246 255 263 265 267 272 270 262 266 291 321 334 338 336 333 333 334 334 334 336 340 349 354 352 354 358 356 353 353 355 357 357 355 355 353 352 352 345 336 336 335 329 325 323
218 217 217 217 215 214 211 208 204 201 200 201 202 203 204 206 208 210 211 212 214 215 217 220 224 230 235 238 239 239 241 243 241 241 242 242 241 241 239 238 243 254 266 268 260 256 261 262 265 276 297 317 326 324 322 322 323 327 328 328 329 335 344 349 350 352 354 354 353 352 354 358 359 358 359 356 355 355 351 346 343 336 327 322 323
220 220 219 217 214 212 210 207 205 204 202 203 203 204 206 207 208 209 210 212 215 217 219 221 226 231 234 236 239 241 244 244 243 243 245 247 245 243 244 246 249 257 266 264 255 250 251 256 265 279 296 310 316 314 313 315 317 320 324 326 328 333 342 348 351 352 353 352 353 352 353 357 359 360 360 356 354 355 355 354 350 340 330 323 325
220 219 217 214 211 210 208 206 205 204 203 204 204 204 206 209 209 209 209 210 213 217 220 223 227 231 233 235 239 242 245 247 246 246 248 250 248 247 249 251 254 258 260 260 254 250 253 260 268 277 291 302 308 308 306 309 313 317 323 328 330 336 344 347 349 352 352 352 353 353 353 356 359 0 359 355 352 354 356 357 355 346 337 329 326
221 218 214 211 208 206 205 204 203 201 202 203 203 203 205 208 209 208 208 210 213 216 220 223 226 230 233 236 238 242 246 248 247 247 250 252 250 249 251 253 254 255 256 259 258 255 258 263 269 277 286 295 302 303 300 305 312 317 321 326 332 342 346 345 346 350 351 353 356 355 354 354 356 358 357 354 352 354 356 358 357 352 347 342 337
224 218 212 208 205 202 201 200 198 198 200 202 203 203 204 205 206 207 208 210 213 216 220 223 226 229 232 234 237 241 245 246 246 248 252 252 250 250 253 253 253 254 257 261 263 263 263 263 266 274 283 291 298 296 295 303 312 315 319 326 336 344 343 341 346 350 350 355 359 356 353 353 354 356 356 353 351 353 356 359 358 355 352 351 350
221 213 207 202 199 198 196 195 195 196 200 202 203 204 204 203 203 206 210 212 214 217 220 222 224 227 231 234 235 238 241 243 245 249 252 250 247 250 253 252 250 252 255 259 265 270 269 267 268 277 288 296 297 292 294 303 308 309 318 329 336 341 339 340 347 350 351 358 1 356 353 354 355 356 356 354 353 355 357 360 0 358 356 354 354
207 203 199 196 194 193 191 192 194 198 202 204 204 204 203 202 203 206 210 212 215 218 220 222 225 228 231 233 236 238 240 241 243 247 249 247 246 249 251 248 247 249 254 260 268 271 272 276 282 291 300 302 296 292 296 300 301 306 320 329 334 336 337 341 347 350 353 0 2 357 355 356 358 359 359 359 0 360 359 359 360 0 359 357 356
195 193 191 190 190 188 188 190 195 200 204 205 207 208 206 206 206 207 210 213 216 219 221 223 226 229 232 235 238 239 240 241 243 246 246 245 245 247 247 244 242 246 253 258 263 266 272 280 288 295 302 301 295 295 299 297 295 306 320 328 332 331 334 343 348 350 354 1 2 359 358 358 359 2 4 5 4 1 358 356 357 360 360 358 357
187 185 185 186 186 187 190 192 196 200 203 204 207 209 211 211 209 208 210 213 215 219 222 225 227 229 232 236 239 240 240 241 243 246 244 243 244 244 243 241 241 244 250 256 259 264 271 277 282 290 298 299 296 297 296 289 288 302 317 326 329 326 332 344 348 347 354 0 1 359 358 358 360 4 9 8 4 2 0 359 358 359 359 358 359
187 184 184 185 186 190 194 196 197 200 203 206 208 210 211 213 213 215 218 218 218 219 222 225 228 231 234 236 238 238 238 240 244 246 245 244 243 242 240 240 241 244 250 256 259 261 266 271 275 284 294 295 292 292 287 277 278 294 313 324 327 322 328 341 343 344 353 359 359 358 358 357 360 6 10 10 6 3 3 3 2 2 2 2 4
186 184 185 186 189 192 196 199 201 203 205 208 212 215 217 219 220 223 227 228 228 229 229 230 234 237 238 239 238 235 237 243 250 253 251 249 248 245 243 243 245 248 253 257 257 257 262 267 270 278 289 289 285 284 278 268 269 286 307 322 324 319 325 336 340 345 354 358 358 359 359 357 359 5 9 9 7 5 5 4 5 7 7 7 8
185 185 187 189 192 195 198 202 205 208 209 211 214 217 222 226 228 231 234 235 237 239 240 241 245 246 245 246 247 246 249 257 263 262 257 254 252 250 250 250 252 254 256 254 253 254 257 262 266 274 282 283 280 279 274 266 269 282 302 318 321 315 320 330 336 343 352 356 357 359 359 357 359 4 7 7 5 5 6 6 7 10 11 10 9
188 189 192 196 199 201 204 206 208 210 213 215 216 217 221 225 230 234 238 240 241 242 244 247 249 250 250 253 256 258 260 263 263 261 259 258 256 253 252 251 250 251 251 249 249 251 253 256 263 270 276 276 273 272 270 267 270 280 296 311 315 310 313 322 331 339 347 351 353 357 359 359 359 2 6 6 5 5 6 7 10 13 13 13 12
197 198 201 204 206 207 209 211 212 213 214 216 218 220 222 226 230 235 237 239 242 244 246 248 249 250 251 255 257 260 262 262 260 259 259 259 259 257 255 251 248 247 245 244 245 248 250 254 261 267 270 271 270 267 266 266 268 274 287 302 306 302 304 315 325 333 340 344 348 353 358 0 1 2 5 8 8 6 5 5 8 11 13 15 15
209 209 209 209 210 211 213 214 215 216 217 218 220 221 223 225 231 236 238 239 241 243 245 247 249 250 252 255 257 261 264 265 264 262 261 261 261 260 255 250 246 243 241 238 240 244 248 252 259 263 265 268 269 266 265 265 265 267 277 291 297 295 297 308 317 323 332 339 344 348 354 0 3 3 5 10 12 9 5 5 8 10 13 14 12
218 218 218 216 215 215 216 218 220 221 222 223 223 224 226 229 232 236 239 239 240 243 245 246 248 249 251 254 256 258 261 263 263 263 262 261 261 257 252 246 241 238 238 237 239 242 246 250 254 258 261 265 267 265 263 263 261 261 269 282 288 285 289 300 307 312 323 333 338 343 350 1 8 4 2 8 14 12 9 8 8 9 11 13 11
224 225 225 224 223 222 223 223 224 225 225 226 227 228 231 232 233 235 238 239 240 244 248 250 250 250 251 252 254 255 257 259 260 260 260 258 255 249 240 235 232 231 232 234 237 241 245 247 251 256 259 262 263 262 261 262 260 258 264 274 279 276 279 290 298 304 314 324 332 339 347 0 13 9 3 6 13 14 10 8 7 7 10 14 14
227 228 228 228 228 229 229 229 229 228 229 231 232 232 233 234 235 237 239 241 243 246 252 256 259 258 256 255 254 253 254 255 257 258 258 256 251 243 233 229 230 231 232 234 238 241 244 248 251 256 259 260 259 258 258 259 259 259 261 268 272 271 272 281 289 295 303 314 324 333 342 356 13 13 5 6 13 16 12 9 9 8 11 15 18
243 242 241 239 237 236 236 236 235 235 235 236 235 236 236 237 239 240 240 242 245 247 252 259 264 265 264 262 257 253 251 252 254 256 256 252 247 241 236 235 237 237 237 238 241 243 246 249 253 257 259 260 258 256 255 256 258 259 259 260 264 268 269 274 280 284 291 303 314 325 337 349 9 15 7 3 10 17 16 13 10 7 9 16 20
257 259 259 258 255 251 249 247 244 242 243 243 241 240 241 242 243 243 244 247 249 251 255 259 261 261 262 264 262 258 253 250 248 246 245 243 239 236 236 238 240 241 242 243 245 247 250 254 256 258 260 260 259 256 254 254 257 257 254 253 258 264 264 265 270 274 281 292 302 314 329 338 356 18 12 4 6 14 16 14 10 5 5 12 18
5 305 281 273 269 265 261 258 254 250 250 250 247 243 243 244 244 243 244 247 250 252 254 255 254 254 257 258 258 255 248 242 239 239 239 239 238 237 237 239 241 243 245 248 249 251 254 257 259 260 260 260 258 256 253 252 253 253 250 248 252 257 256 256 260 264 271 282 291 301 316 321 323 17 18 7 6 11 14 14 10 3 360 6 14
22 13 350 325 313 302 287 275 265 257 253 253 251 248 245 245 245 244 242 244 247 250 251 250 250 255 257 255 251 247 242 238 237 239 239 239 238 237 239 244 247 249 250 251 252 253 256 260 262 263 262 260 258 255 252 251 252 252 247 244 247 252 253 252 255 259 263 272 281 290 300 301 284 360 23 12 7 7 9 11 7 360 358 5 13
11 8 1 353 347 343 342 331 307 286 274 266 260 255 251 250 249 248 246 245 247 251 252 251 254 259 262 259 255 249 244 241 241 241 242 243 242 240 242 247 252 253 252 251 251 254 259 263 264 264 264 263 260 257 253 251 253 252 245 241 244 250 250 248 250 253 256 263 271 279 288 283 258 248 17 13 7 2 2 10 6 359 359 8 16
8 4 360 360 360 357 359 358 346 330 319 304 285 271 263 258 256 253 251 249 249 251 253 256 261 265 266 264 259 251 244 242 242 243 246 249 248 246 246 248 251 255 256 255 255 257 261 266 268 266 265 264 263 259 253 250 249 248 242 239 242 247 247 246 247 248 250 257 265 272 278 269 241 215 267 358 358 353 355 9 10 2 3 10 17
17 15 12 10 10 8 6 3 356 346 338 332 323 309 293 280 270 264 259 256 256 257 258 262 266 268 268 267 261 249 242 242 243 245 248 251 251 250 249 250 253 256 258 260 259 258 259 266 272 270 267 266 265 262 257 252 247 243 239 237 241 246 247 246 244 243 244 251 260 265 269 261 236 209 196 259 342 344 347 7 14 7 6 10 18
21 22 20 16 12 9 6 4 1 356 349 345 343 339 330 318 304 290 279 273 270 269 268 268 271 272 271 267 259 248 243 244 245 246 249 251 251 252 253 255 256 257 258 259 259 256 256 264 274 276 274 270 267 264 261 256 248 242 239 238 241 245 247 246 244 242 243 249 256 260 261 254 233 210 195 202 299 325 334 4 16 12 11 12 19
16 14 13 11 9 8 11 12 12 12 12 12 11 8 4 358 347 333 317 304 295 289 284 282 281 279 275 269 261 253 251 250 250 251 253 254 254 256 258 258 258 258 259 259 258 256 255 262 274 280 281 277 269 263 261 257 249 242 241 242 243 246 250 252 250 245 242 247 253 256 257 250 231 210 196 198 242 296 309 325 10 14 15 11 18
8 7 7 8 9 13 19 23 23 26 29 27 23 20 19 18 15 9 1 349 337 325 314 305 298 292 285 278 269 263 261 259 257 258 259 259 260 262 264 263 261 260 260 259 258 256 255 262 273 282 286 281 272 263 261 259 252 244 241 242 244 248 253 256 253 244 240 244 249 252 254 248 229 210 200 200 221 258 257 218 281 17 20 12 17
2 2 3 4 7 13 20 25 29 34 36 32 26 23 22 21 20 19 17 14 11 6 357 346 334 320 308 297 286 278 274 272 269 266 265 266 267 270 270 269 266 264 261 259 258 256 254 259 271 284 288 282 273 266 264 263 257 248 242 241 242 245 249 252 249 242 239 242 243 245 250 247 228 211 203 203 215 235 227 201 201 4 30 29 23
357 358 358 357 358 2 11 20 27 32 33 30 28 27 26 24 21 20 19 16 14 13 11 8 5 358 349 335 320 306 296 289 282 277 274 275 277 278 277 275 272 268 263 261 261 259 255 256 267 282 286 277 270 267 267 266 261 254 246 241 240 242 245 248 247 243 240 239 237 238 244 241 225 212 206 204 212 226 219 199 195 210 132 82 37
347 349 350 350 348 350 359 11 18 23 25 25 25 25 23 21 19 18 16 14 11 10 11 10 7 5 4 0 355 350 340 324 308 298 291 288 287 286 284 280 276 271 266 263 264 263 259 257 264 274 279 273 265 263 264 264 261 255 248 242 239 240 243 245 246 243 240 237 234 232 234 233 224 215 209 206 211 219 213 199 194 194 177 150 81
337 338 340 341 340 339 343 353 2 9 12 12 15 18 16 13 12 11 10 8 6 6 6 5 4 2 1 360 359 359 357 351 341 329 317 307 300 295 290 284 279 275 271 268 268 267 265 262 264 270 273 268 261 259 261 261 258 252 247 242 240 239 240 242 244 243 240 237 232 227 227 227 223 216 210 209 212 216 211 203 197 192 186 177 147
332 329 329 330 331 330 326 327 336 348 353 352 355 1 4 1 359 358 360 1 1 360 358 358 357 357 357 358 358 358 358 357 356 351 342 329 316 305 296 288 282 279 276 273 272 271 270 269 269 270 270 264 257 256 259 261 258 253 247 242 239 237 238 240 242 241 239 236 231 225 223 224 221 216 212 211 212 214 210 205 200 194 188 182 168
Height
837 838 839 840 841 841 842 842 842 843 843 843 843 842 842 842 843 843 843 844 844 844 844 844 844 845 845 845 845 846 846 847 846 846 845 845 845 845 845 845 845 845 845 845 845 844 844 843 842 841 841 840 839 838 836 835 833 832 830 828 827 827 825 825 824 819 814 813 812 809 807 804 801 799 797 794 792 790 788 786 783 781 778 775 773
836 837 838 838 839 840 840 841 841 841 841 841 841 841 841 842 842 842 843 843 844 844 844 844 844 845 845 845 845 846 847 847 847 846 845 845 845 845 845 845 845 845 845 845 845 844 844 843 842 841 841 840 838 837 836 834 833 831 829 828 826 825 825 823 822 819 814 811 810 807 805 803 800 797 796 793 790 788 786 783 781 778 776 774 771
834 835 836 837 838 838 839 839 839 840 840 840 840 840 840 841 841 842 842 843 843 844 844 844 844 844 845 845 845 846 847 847 847 846 846 845 845 845 845 845 845 846 845 845 845 844 843 843 842 841 841 839 838 837 835 834 832 831 829 827 826 824 823 822 821 819 815 811 808 806 803 801 799 796 794 792 789 786 784 781 779 776 774 772 770
832 833 834 835 836 837 837 837 838 838 839 839 839 839 840 840 841 841 842 842 843 844 844 844 844 844 844 845 845 846 846 847 847 846 846 845 845 845 845 845 845 845 845 845 844 844 843 842 842 841 840 839 838 836 835 834 832 830 828 826 825 823 822 821 820 818 816 811 808 805 803 800 797 794 792 790 787 785 782 779 777 774 772 770 768
830 831 833 834 834 835 835 836 837 837 837 837 837 838 838 839 840 840 841 841 842 843 844 844 844 844 844 844 845 845 846 846 846 846 845 845 845 845 845 845 845 845 845 844 844 843 843 842 842 841 840 839 837 836 835 833 831 830 828 826 824 822 821 820 819 817 815 812 807 804 802 800 796 793 790 788 785 783 780 777 775 772 770 767 765
828 829 831 832 832 833 833 834 835 835 836 836 836 837 837 838 839 839 840 840 841 842 843 843 843 843 844 844 844 845 845 846 846 845 845 845 845 845 845 845 845 844 844 844 844 843 842 842 841 840 839 838 837 836 834 832 831 829 827 825 823 821 820 818 817 816 814 811 807 803 800 798 795 791 789 787 784 780 778 775 772 770 767 765 762
826 827 829 830 831 831 831 832 832 833 834 834 835 835 836 837 838 838 839 840 840 841 842 842 842 843 843 843 844 845 845 845 845 845 845 844 844 844 844 844 844 844 844 843 843 843 842 841 841 839 838 837 836 835 833 832 830 828 826 824 822 820 818 817 816 814 812 810 807 803 800 797 794 791 787 785 783 780 777 773 769 766 764 762 759
823 825 827 828 828 829 829 830 830 831 832 832 833 834 835 836 836 837 838 839 839 840 841 841 842 842 842 843 844 844 844 844 844 844 844 844 844 844 844 844 843 843 843 843 842 842 842 841 840 839 838 836 835 834 833 831 829 827 825 823 821 819 818 816 815 813 811 809 806 803 799 796 793 790 786 783 781 778 776 774 769 764 761 758 756
821 823 824 825 826 827 827 828 829 829 830 831 831 832 833 834 835 836 837 838 838 839 840 840 841 841 842 842 843 843 843 843 843 843 843 843 843 843 843 843 842 842 842 842 842 842 841 840 839 838 837 836 835 833 832 830 828 826 824 822 820 818 817 815 814 812 810 807 805 802 799 795 791 788 785 782 780 777 774 773 769 765 761 755 752
818 820 821 822 823 824 825 826 827 828 828 829 830 830 832 833 834 835 835 836 837 838 839 839 840 840 841 841 842 842 842 843 842 842 842 842 842 842 842 842 842 841 841 841 841 840 840 839 838 838 837 835 834 833 831 830 827 825 823 821 819 818 816 815 813 811 809 806 804 801 798 795 791 788 785 782 779 776 773 771 767 763 760 755 748
816 817 818 819 820 822 823 823 824 825 826 827 828 829 830 831 832 834 834 835 836 837 838 838 839 839 840 840 841 841 841 842 841 841 842 841 841 841 841 841 841 840 840 840 840 839 839 838 837 836 835 834 833 832 830 828 826 824 823 821 819 818 816 815 812 810 808 806 803 801 798 795 791 788 785 781 778 776 772 770 766 762 759 755 749
813 814 815 817 818 819 820 820 821 823 823 825 826 827 829 830 831 832 833 834 835 836 837 837 838 838 839 839 840 840 840 840 840 841 841 840 840 840 840 840 840 839 839 839 839 838 838 837 836 835 834 833 832 831 829 827 825 824 822 821 819 818 816 814 812 810 808 805 803 800 797 794 790 787 784 780 777 775 771 768 766 762 758 755 750
810 811 812 814 815 816 817 818 819 820 821 822 824 825 827 828 829 830 831 833 834 835 836 836 836 837 837 838 839 839 839 839 839 839 839 839 839 839 839 839 838 838 838 838 837 837 837 836 835 834 833 832 831 830 828 826 825 823 822 820 819 817 815 814 812 810 808 805 802 800 796 793 790 786 783 780 776 773 771 767 764 761 757 754 750
807 808 809 811 812 813 814 815 816 817 818 820 822 823 825 826 827 829 830 831 832 833 834 835 835 836 836 837 837 838 838 838 838 838 838 838 838 838 838 838 837 837 837 836 836 836 835 835 834 833 832 831 830 829 827 825 824 822 821 819 817 816 814 813 811 809 807 804 802 799 796 793 790 786 783 780 777 773 770 767 762 759 755 752 748
804 806 807 808 809 810 811 812 813 814 816 818 820 821 823 824 825 827 828 829 830 831 832 833 834 834 835 835 836 836 837 837 837 837 837 837 837 837 837 837 836 836 836 835 834 834 833 833 833 832 831 830 829 828 826 824 823 821 820 818 816 814 813 812 810 807 805 804 802 798 795 792 789 786 783 780 777 774 771 767 762 758 753 749 745
801 803 804 805 806 807 808 809 811 812 814 816 818 819 820 822 823 825 826 827 829 830 831 832 832 833 834 834 835 835 836 836 836 836 836 836 836 836 835 835 835 835 834 834 833 833 832 831 831 830 830 829 828 826 825 824 822 820 819 817 815 813 812 810 809 807 805 803 801 798 795 792 789 786 783 779 776 773 770 765 761 757 752 747 743
798 800 801 802 803 804 805 806 808 810 812 814 815 817 818 820 821 823 824 825 826 828 829 830 831 831 832 833 833 834 834 835 835 835 835 835 835 834 834 834 834 833 833 832 832 831 831 830 830 829 829 828 827 825 824 823 821 819 818 816 814 812 810 809 807 805 804 802 800 797 794 791 788 785 782 778 775 772 768 764 760 756 753 747 742
795 796 797 798 800 801 802 803 805 807 809 810 812 814 815 817 819 820 821 822 824 826 827 828 829 830 831 831 832 832 833 833 833 833 834 834 833 833 833 833 832 832 831 831 830 830 829 829 829 828 828 827 826 825 823 822 820 819 817 815 813 811 809 807 805 803 802 800 798 796 793 790 787 784 780 777 773 771 768 764 760 756 753 749 743
791 792 793 795 796 798 799 800 802 803 805 807 809 811 813 815 816 818 819 820 822 824 825 826 827 828 829 830 830 831 832 832 832 832 832 832 832 832 832 831 831 831 830 830 829 829 828 828 828 827 827 826 825 824 822 821 819 818 816 814 812 810 808 806 804 801 799 798 796 794 791 788 785 782 779 775 772 770 767 764 760 756 753 749 745
787 788 790 791 793 794 796 797 799 800 802 804 806 809 811 812 814 816 817 819 821 822 824 825 825 826 827 828 829 829 830 830 831 831 831 831 831 831 830 830 829 829 829 828 828 827 827 827 826 826 825 824 824 823 821 820 818 817 815 813 811 809 807 805 803 801 799 797 795 792 790 786 783 780 777 774 771 769 766 763 760 757 753 749 744
784 786 787 788 790 791 792 794 796 797 800 802 804 806 808 810 811 813 815 817 819 821 822 823 824 825 825 826 827 827 828 828 829 829 829 829 829 829 829 828 828 828 828 827 827 826 826 825 825 824 824 823 822 821 820 819 817 816 814 812 810 808 806 804 802 800 798 796 794 792 789 786 782 779 776 773 771 768 765 762 760 756 753 749 745
782 783 784 785 787 788 790 791 793 796 798 800 802 803 805 808 810 811 814 816 817 819 820 821 822 823 824 824 825 825 826 826 826 827 827 827 827 827 827 827 827 826 826 826 825 825 824 824 823 823 822 822 821 820 819 818 816 815 813 811 809 807 806 804 802 800 798 795 793 790 788 785 782 778 776 773 770 767 764 761 759 756 752 749 746
780 781 782 783 784 786 787 789 791 794 796 798 800 802 804 806 808 810 812 814 815 817 818 819 820 821 822 822 822 823 823 824 824 824 825 825 825 825 825 825 825 824 824 824 824 823 823 823 822 822 821 820 819 818 817 816 815 813 811 810 808 806 805 803 801 799 797 794 792 789 787 785 782 778 775 773 770 767 764 761 758 754 751 747 745
778 779 780 781 783 784 786 788 790 793 795 798 800 801 803 805 807 809 810 812 813 814 816 817 818 818 819 819 819 820 821 821 821 822 822 822 823 823 823 823 823 822 822 822 822 822 821 821 821 820 819 818 818 817 816 815 813 812 810 808 807 805 803 802 800 798 796 793 791 789 787 785 782 779 776 773 770 766 764 760 757 754 750 746 743
776 777 779 780 781 783 786 788 790 792 794 796 798 800 802 803 805 807 808 810 811 812 813 815 815 816 816 816 816 817 818 818 818 819 820 820 820 820 821 821 820 820 820 820 820 820 819 819 819 818 817 817 816 815 814 813 812 810 809 807 806 804 803 801 799 797 795 793 791 789 787 785 782 780 776 773 770 766 763 759 756 752 748 745 742
775 776 778 779 781 784 786 788 791 792 794 795 796 798 800 801 803 805 806 808 809 810 811 812 812 813 813 813 813 814 815 815 815 816 817 817 818 818 818 818 818 818 818 818 818 818 817 817 817 816 816 815 814 813 812 811 810 809 808 806 805 803 802 800 799 797 795 793 791 789 787 785 783 780 776 773 770 766 763 759 755 751 747 744 741
775 776 778 780 782 784 785 787 789 791 793 794 796 797 799 800 801 802 804 805 806 807 808 809 809 810 810 809 810 811 812 812 812 813 814 814 814 815 816 816 816 816 815 815 815 815 815 815 814 814 813 813 812 811 810 809 809 808 806 805 804 803 801 799 798 796 794 792 790 788 787 785 782 779 776 773 770 767 764 760 756 752 748 745 742
775 776 778 780 781 783 784 786 788 789 791 793 794 795 796 798 799 799 800 801 802 803 804 805 805 805 805 806 807 808 808 809 808 808 809 810 810 811 812 812 812 812 812 812 813 813 813 812 812 812 811 810 809 809 808 808 807 806 805 804 803 802 800 799 797 796 794 792 790 787 786 784 782 779 776 773 770 767 764 761 757 754 750 747 744
775 777 778 779 781 782 784 785 787 788 790 791 792 793 794 795 795 796 796 797 798 799 799 800 800 801 801 802 803 804 803 802 802 803 805 806 807 808 808 809 809 809 810 810 811 811 810 810 809 809 808 807 807 807 806 806 806 805 804 802 801 801 799 798 796 795 793 791 789 787 785 784 782 780 777 774 771 768 765 762 759 755 752 749 747
776 777 778 779 781 782 783 785 786 787 788 789 790 792 792 793 794 794 795 795 796 796 797 796 797 798 799 798 799 799 798 798 799 801 803 803 804 805 806 807 807 808 809 809 809 809 808 808 807 806 806 805 805 804 804 804 804 803 802 801 800 799 798 797 795 794 793 791 789 787 785 784 783 780 777 774 772 769 766 763 760 756 753 751 749
776 777 778 779 780 781 782 783 784 786 787 788 789 790 791 792 792 792 793 794 794 794 794 794 795 796 796 795 795 795 795 796 797 799 800 801 802 802 803 804 805 806 807 807 806 806 806 805 805 804 804 803 802 802 802 802 802 801 800 799 799 798 797 796 794 793 792 790 789 787 785 784 783 781 778 775 772 770 767 764 761 758 755 753 751
774 775 776 778 779 780 781 782 783 784 785 786 788 788 789 790 790 789 790 791 791 792 792 792 792 792 792 792 793 792 793 794 795 796 797 798 799 800 800 801 802 803 804 804 803 802 802 802 802 802 802 801 800 800 800 800 799 799 798 798 797 796 796 795 794 792 791 789 788 787 785 783 783 781 779 776 773 770 768 765 762 759 756 754 753
773 774 775 776 777 779 780 781 782 783 783 784 785 786 787 787 786 786 786 788 788 788 788 788 788 789 790 791 791 791 791 793 794 795 795 796 797 798 798 799 799 800 800 800 799 798 798 798 798 798 799 799 798 798 798 797 797 797 796 796 795 794 794 794 793 792 790 789 788 787 785 783 782 781 779 777 774 772 769 767 764 760 757 755 754
772 773 774 775 776 777 778 779 780 780 781 782 783 783 783 783 783 783 784 785 785 785 784 784 785 786 787 788 789 789 790 790 791 792 793 794 794 796 796 796 796 797 796 796 795 794 794 794 794 795 795 795 795 796 795 795 795 795 794 794 793 793 792 792 792 791 790 788 787 786 784 783 781 781 779 777 775 772 770 768 765 762 759 757 755
771 772 773 774 774 775 776 776 777 778 779 779 780 780 780 780 781 781 782 782 782 781 780 781 782 784 784 785 786 787 787 788 789 790 790 791 792 793 794 793 793 793 792 792 791 791 790 791 790 791 791 792 792 792 793 792 792 792 792 792 792 791 791 791 790 790 789 788 787 786 784 782 781 780 779 777 775 773 771 769 767 764 761 759 757
772 772 772 773 773 773 773 774 774 774 775 775 775 776 777 777 778 779 779 780 780 779 778 779 781 782 783 783 784 785 786 786 787 788 789 789 790 790 789 789 789 789 788 787 787 787 787 787 787 787 788 788 788 789 789 790 790 790 790 790 790 789 789 789 789 788 788 787 786 785 784 782 781 780 779 778 776 774 772 770 768 766 763 760 758
774 774 774 774 774 773 773 773 772 772 773 773 774 775 775 776 776 777 777 778 777 777 777 778 780 781 782 782 782 783 784 785 785 786 787 787 787 786 786 785 785 785 783 782 782 783 783 783 783 784 784 785 785 785 786 786 787 787 787 787 787 787 787 787 787 787 787 786 785 784 783 782 781 780 779 778 776 774 773 771 769 767 764 762 759
774 774 774 775 774 774 773 772 772 773 774 774 774 774 775 775 775 776 776 776 776 776 777 777 778 778 779 779 780 781 781 782 782 782 782 783 783 781 781 781 781 780 779 779 779 780 779 778 779 780 780 781 782 782 782 783 783 784 785 785 785 785 785 785 785 785 785 785 784 783 782 781 780 779 778 777 776 774 773 771 770 768 766 763 760
773 772 772 772 772 772 771 770 771 773 773 772 772 772 773 773 772 773 773 774 774 773 773 773 772 772 772 773 774 775 776 776 775 775 775 775 776 777 777 778 777 777 777 777 777 776 775 775 775 776 776 777 778 779 779 780 780 781 782 782 782 782 783 783 783 783 784 784 783 782 782 781 780 779 778 777 776 775 773 772 770 769 767 764 762
772 772 771 771 770 770 770 769 769 770 769 769 769 770 770 769 768 768 769 770 769 768 767 767 766 765 765 767 768 769 769 769 769 769 769 769 771 773 774 774 773 772 772 772 772 772 773 772 772 773 773 773 775 776 776 777 777 778 779 779 780 780 780 780 781 781 782 782 782 781 781 780 779 778 778 777 776 775 773 772 771 769 768 766 763
772 772 771 770 770 769 768 768 768 767 767 767 766 766 766 765 765 765 765 765 765 763 763 762 761 760 761 762 763 763 764 763 763 765 765 765 766 766 766 765 764 764 765 766 768 770 771 770 770 771 771 771 771 772 773 774 774 775 776 776 777 777 778 778 778 779 779 780 780 780 779 779 779 778 777 777 776 775 774 772 771 770 768 767 764
773 772 770 770 769 768 767 767 767 766 765 765 764 763 763 762 762 762 761 761 760 760 759 758 758 757 757 757 758 759 759 759 760 761 761 761 761 760 759 759 759 758 759 761 762 764 766 766 767 768 768 768 768 769 769 770 771 771 772 773 774 775 775 775 776 776 777 778 778 778 778 778 778 777 777 776 775 775 774 772 771 770 768 767 765
774 772 771 770 769 768 767 767 766 765 764 763 762 762 761 760 760 759 758 758 757 757 756 755 754 753 753 753 754 755 756 756 756 757 756 756 756 756 755 754 754 754 755 756 756 757 760 761 761 761 762 763 765 766 766 766 767 768 769 770 771 772 772 772 773 774 774 775 776 777 777 777 777 776 776 776 775 774 774 772 771 770 769 767 766
774 773 772 771 769 768 767 766 765 764 763 762 761 760 759 758 758 757 756 755 755 754 753 752 751 750 750 750 751 752 752 751 752 752 752 752 752 751 750 750 749 750 752 752 752 753 755 756 756 756 756 758 760 761 762 763 763 764 765 766 767 769 769 770 770 771 772 773 774 775 775 775 775 775 775 775 774 774 773 772 771 770 769 768 766
774 774 773 771 770 769 768 767 766 765 763 762 761 759 758 757 756 755 754 753 752 751 750 749 748 747 747 747 747 747 747 747 747 747 747 747 747 746 746 746 746 747 748 748 748 750 751 752 753 752 752 753 755 756 758 759 759 760 761 763 764 765 766 767 768 769 770 771 772 773 774 774 774 774 774 774 774 773 773 772 771 770 769 768 767
773 773 772 771 770 769 768 767 767 765 764 763 761 760 759 757 756 755 754 753 751 750 749 748 747 746 745 745 745 744 744 744 744 744 744 744 743 742 742 742 743 743 744 744 745 746 747 748 749 748 748 748 750 752 753 754 755 756 757 759 761 762 764 765 766 767 767 768 769 771 772 772 773 773 773 773 773 773 772 772 771 770 769 768 767
773 772 771 770 770 769 768 767 766 765 764 764 762 761 760 758 757 756 754 753 751 750 749 747 746 745 744 743 743 742 742 742 742 741 741 741 740 740 739 739 739 740 740 741 741 742 743 744 744 744 744 745 747 749 750 751 751 753 754 755 757 760 761 763 764 765 765 766 767 768 770 771 771 772 772 772 772 772 772 771 771 770 769 768 767
772 771 771 770 769 768 768 766 765 764 764 763 762 761 760 759 758 756 755 754 752 751 749 748 746 745 744 743 742 742 741 741 740 739 739 738 738 737 737 736 736 736 737 737 738 738 739 740 740 740 740 742 743 745 747 748 749 751 752 753 755 757 759 760 761 762 763 764 764 766 767 769 770 770 771 771 771 771 771 771 770 770 769 768 767
771 771 770 770 769 768 767 765 764 763 762 762 761 761 760 759 758 757 756 754 753 751 750 748 747 745 744 743 742 741 740 739 738 737 737 736 735 734 734 733 733 733 734 734 734 734 734 735 736 737 738 738 739 740 742 743 745 747 749 750 752 754 756 757 759 760 761 762 762 763 765 766 768 769 770 770 770 770 770 770 770 769 769 768 767
771 770 769 769 768 767 766 765 764 763 762 761 761 760 759 758 758 757 756 755 753 752 750 749 747 746 745 743 742 740 739 738 737 736 734 733 732 731 731 731 731 731 731 731 731 731 731 732 732 733 734 735 736 737 738 739 740 742 744 746 749 751 753 755 756 757 759 760 760 761 762 764 766 767 768 768 769 769 769 769 769 769 768 768 767
769 769 768 767 767 766 765 764 763 761 761 760 760 759 758 758 757 756 756 755 753 752 751 749 748 747 745 744 742 741 739 738 736 735 733 731 730 729 728 728 728 728 728 728 728 728 728 728 729 729 730 731 733 734 735 736 737 738 739 742 745 747 750 752 753 754 756 757 758 759 760 761 763 765 766 767 767 768 768 769 768 768 768 767 767